User: anonymous   Login
Location: Unspecified
(0.0000°N, 0.0000°E)
Time: 11:08:35
(UTC+02:00)
Language:

OPAL - Orbit

View from above orbital plane
View from above orbital plane
View from above satellite
View from above satellite

Ground track
Ground track

The orbit data is extracted from the following two-line orbital elements,

1 26063U 00004C   16145.39323991  .00000014  00000-0  24739-4 0  9991
2 26063 100.1892  71.5083 0036153 325.8428  34.0426 14.36617317855550
Epoch (UTC): 24 May 2016 09:26:15
Eccentricity: 0.0036153
inclination: 100.1892°
perigee height: 744 km
apogee height: 795 km
right ascension of ascending node: 71.5083°
argument of perigee: 325.8428°
revolutions per day: 14.36617317
mean anomaly at epoch: 34.0426°
orbit number at epoch: 85555

The dashed part of the orbit path shows where the satellite is in the earth's shadow,  

DLR